| time (UTC) | temp F | wind direction | speed MPH | gust MPH | rain 1hr in | rain 24hr in | rain mn in | humidity % | barometer mb |
| 20260831183012 | 83 | 284 | 4.0 | 8.0 | 0.00 | 0.01 | 0.01 | 72 | 1015.2 |
| 20260831181511 | 82 | 242 | 4.0 | 11.0 | 0.00 | 0.01 | 0.01 | 73 | 1015.4 |
| 20260831180009 | 82 | 287 | 4.0 | 11.0 | 0.00 | 0.01 | 0.01 | 73 | 1015.5 |
| 20260831174511 | 82 | 296 | 2.0 | 8.0 | 0.00 | 0.01 | 0.01 | 74 | 1015.5 |
| 20260831173008 | 83 | 246 | 1.0 | 8.0 | 0.00 | 0.01 | 0.01 | 75 | 1015.6 |
| 20260831171507 | 82 | 238 | 3.0 | 8.0 | 0.00 | 0.01 | 0.01 | 75 | 1015.6 |
| 20260831170010 | 82 | 272 | 2.0 | 9.0 | 0.00 | 0.02 | 0.01 | 74 | 1015.7 |
| 20260831164505 | 82 | 298 | 3.0 | 9.0 | 0.00 | 0.02 | 0.01 | 73 | 1015.7 |
| 20260831163003 | 83 | 246 | 2.0 | 5.0 | 0.00 | 0.02 | 0.01 | 73 | 1015.7 |
| 20260831161603 | 81 | 313 | 2.0 | 9.0 | 0.00 | 0.02 | 0.01 | 74 | 1015.7 |
| 20260831160123 | 80 | 300 | 3.0 | 7.0 | 0.00 | 0.02 | 0.01 | 75 | 1015.7 |
| 20260831154559 | 81 | 254 | 3.0 | 8.0 | 0.00 | 0.02 | 0.01 | 75 | 1015.7 |
| 20260831153128 | 80 | 272 | 3.0 | 10.0 | 0.00 | 0.02 | 0.01 | 74 | 1015.8 |
| 20260831151553 | 80 | 234 | 2.0 | 8.0 | 0.00 | 0.02 | 0.01 | 77 | 1015.7 |
| 20260831150049 | 78 | 315 | 4.0 | 9.0 | 0.00 | 0.02 | 0.01 | 82 | 1015.9 |
| 20260831144545 | 76 | 290 | 0.0 | 7.0 | 0.00 | 0.02 | 0.01 | 85 | 1015.9 |
| 20260831143045 | 75 | 283 | 0.0 | 4.0 | 0.00 | 0.02 | 0.01 | 88 | 1015.9 |
| 20260831141543 | 74 | 244 | 0.0 | 3.0 | 0.00 | 0.02 | 0.01 | 89 | 1016.0 |
| 20260831140037 | 74 | 262 | 0.0 | 3.0 | 0.00 | 0.02 | 0.01 | 89 | 1015.9 |
| 20260831134536 | 74 | 257 | 0.0 | 3.0 | 0.00 | 0.02 | 0.01 | 89 | 1015.8 |
| 20260831133033 | 74 | 279 | 2.0 | 4.0 | 0.00 | 0.02 | 0.01 | 88 | 1015.9 |
| 20260831131532 | 74 | 266 | 0.0 | 1.0 | 0.00 | 0.02 | 0.01 | 89 | 1015.8 |
| 20260831130024 | 73 | 261 | 0.0 | 0.0 | 0.00 | 0.02 | 0.01 | 90 | 1015.8 |
| 20260831124521 | 71 | 259 | 0.0 | 0.0 | 0.00 | 0.02 | 0.01 | 92 | 1015.8 |
| 20260831123032 | 71 | 259 | 0.0 | 0.0 | 0.00 | 0.02 | 0.01 | 93 | 1015.7 |
| 20260831121526 | 70 | 259 | 0.0 | 5.0 | 0.01 | 0.02 | 0.01 | 93 | 1015.7 |
| 20260831120032 | 70 | 199 | 0.0 | 2.0 | 0.01 | 0.02 | 0.01 | 92 | 1015.8 |
| 20260831114520 | 71 | 247 | 1.0 | 3.0 | 0.01 | 0.02 | 0.01 | 92 | 1015.8 |
| 20260831113022 | 71 | 196 | 0.0 | 3.0 | 0.01 | 0.02 | 0.01 | 91 | 1015.8 |
| 20260831111518 | 71 | 236 | 0.0 | 2.0 | 0.00 | 0.01 | 0.00 | 91 | 1015.7 |
| 20260831110017 | 71 | 210 | 0.0 | 3.0 | 0.00 | 0.01 | 0.00 | 90 | 1015.5 |
| 20260831104529 | 71 | 267 | 0.0 | 2.0 | 0.00 | 0.01 | 0.00 | 90 | 1015.3 |
| 20260831103015 | 71 | 277 | 1.0 | 3.0 | 0.00 | 0.01 | 0.00 | 90 | 1015.1 |
| 20260831101521 | 71 | 223 | 0.0 | 0.0 | 0.00 | 0.01 | 0.00 | 90 | 1015.1 |
| 20260831100023 | 71 | 231 | 1.0 | 4.0 | 0.00 | 0.01 | 0.00 | 89 | 1015.1 |
| 20260831094614 | 71 | 271 | 0.0 | 3.0 | 0.00 | 0.01 | 0.00 | 89 | 1015.0 |
| 20260831093013 | 71 | 259 | 0.0 | 0.0 | 0.00 | 0.01 | 0.00 | 89 | 1015.0 |
| 20260831091512 | 71 | 259 | 0.0 | 4.0 | 0.00 | 0.01 | 0.00 | 88 | 1015.1 |
| 20260831090012 | 71 | 267 | 1.0 | 5.0 | 0.00 | 0.01 | 0.00 | 88 | 1015.1 |
| 20260831084511 | 71 | 230 | 0.0 | 4.0 | 0.00 | 0.01 | 0.00 | 88 | 1015.1 |
| 20260831083010 | 72 | 281 | 2.0 | 4.0 | 0.00 | 0.01 | 0.00 | 88 | 1015.1 |
| 20260831081511 | 72 | 259 | 0.0 | 3.0 | 0.00 | 0.01 | 0.00 | 88 | 1015.1 |
| 20260831080008 | 72 | 220 | 1.0 | 3.0 | 0.00 | 0.01 | 0.00 | 88 | 1015.1 |
| 20260831074507 | 71 | 340 | 0.0 | 4.0 | 0.00 | 0.01 | 0.00 | 89 | 1015.1 |
| 20260831073005 | 71 | 260 | 1.0 | 4.0 | 0.00 | 0.01 | 0.00 | 90 | 1015.2 |
| 20260831071503 | 71 | 280 | 1.0 | 6.0 | 0.00 | 0.01 | 0.00 | 91 | 1015.3 |
| 20260831070002 | 70 | 243 | 0.0 | 0.0 | 0.00 | 0.01 | 0.00 | 92 | 1015.4 |
| 20260831064601 | 70 | 271 | 0.0 | 6.0 | 0.00 | 0.01 | 0.00 | 93 | 1015.4 |
| 20260831063102 | 70 | 221 | 0.0 | 0.0 | 0.00 | 0.01 | 0.00 | 93 | 1015.6 |
| 20260831061606 | 70 | 122 | 0.0 | 0.0 | 0.00 | 0.01 | 0.00 | 94 | 1015.7 |
| 20260831060108 | 71 | 126 | 1.0 | 5.0 | 0.00 | 0.01 | 0.00 | 93 | 1015.7 |
| 20260831054558 | 71 | 111 | 0.0 | 3.0 | 0.00 | 0.01 | 0.00 | 93 | 1015.9 |
| 20260831053056 | 71 | 196 | 0.0 | 3.0 | 0.00 | 0.01 | 0.00 | 93 | 1015.8 |
| 20260831051618 | 71 | 88 | 0.0 | 0.0 | 0.00 | 0.01 | 0.00 | 93 | 1015.7 |
| 20260831050054 | 71 | 115 | 0.0 | 3.0 | 0.00 | 0.01 | 0.00 | 94 | 1015.9 |
| 20260831044555 | 71 | 119 | 0.0 | 3.0 | 0.00 | 0.01 | 0.00 | 93 | 1015.9 |
| 20260831043051 | 71 | 126 | 0.0 | 2.0 | 0.00 | 0.01 | 0.00 | 93 | 1016.0 |
| 20260831041553 | 71 | 130 | 1.0 | 3.0 | 0.00 | 0.01 | 0.00 | 93 | 1016.0 |
| 20260831040050 | 71 | 109 | 0.0 | 6.0 | 0.00 | 0.01 | 0.00 | 94 | 1016.1 |
| 20260831034548 | 71 | 152 | 1.0 | 4.0 | 0.00 | 0.01 | 0.01 | 94 | 1016.1 |
| 20260831033049 | 71 | 135 | 1.0 | 4.0 | 0.00 | 0.01 | 0.01 | 94 | 1016.2 |
| 20260831031548 | 71 | 114 | 0.0 | 0.0 | 0.00 | 0.01 | 0.01 | 93 | 1016.3 |
| 20260831030047 | 71 | 92 | 0.0 | 0.0 | 0.00 | 0.01 | 0.01 | 93 | 1016.6 |
| 20260831024559 | 71 | 92 | 0.0 | 2.0 | 0.00 | 0.01 | 0.01 | 92 | 1016.7 |
| 20260831023044 | 71 | 88 | 2.0 | 4.0 | 0.00 | 0.01 | 0.01 | 92 | 1016.9 |
| 20260831021553 | 71 | 110 | 2.0 | 4.0 | 0.00 | 0.01 | 0.01 | 92 | 1016.8 |
| 20260831020044 | 71 | 119 | 0.0 | 2.0 | 0.00 | 0.01 | 0.01 | 92 | 1016.8 |
| 20260831014544 | 71 | 119 | 1.0 | 3.0 | 0.00 | 0.01 | 0.01 | 92 | 1017.1 |
| 20260831013042 | 71 | 124 | 0.0 | 3.0 | 0.00 | 0.01 | 0.01 | 93 | 1017.1 |
| 20260831011542 | 71 | 124 | 0.0 | 0.0 | 0.00 | 0.01 | 0.01 | 93 | 1017.2 |
| 20260831010108 | 71 | 124 | 0.0 | 0.0 | 0.00 | 0.01 | 0.01 | 93 | 1017.1 |
| 20260831004548 | 71 | 124 | 0.0 | 0.0 | 0.00 | 0.01 | 0.01 | 93 | 1016.9 |
| 20260831003038 | 71 | 124 | 0.0 | 0.0 | 0.00 | 0.01 | 0.01 | 93 | 1016.9 |
| 20260831001552 | 72 | 124 | 0.0 | 0.0 | 0.00 | 0.01 | 0.01 | 92 | 1016.8 |
| 20260831000039 | 72 | 124 | 0.0 | 0.0 | 0.00 | 0.01 | 0.01 | 91 | 1016.7 |
| 20260830234537 | 72 | 124 | 0.0 | 0.0 | 0.00 | 0.01 | 0.01 | 91 | 1016.6 |
| 20260830233036 | 73 | 124 | 0.0 | 0.0 | 0.00 | 0.01 | 0.01 | 89 | 1016.2 |
| 20260830231536 | 73 | 124 | 0.0 | 0.0 | 0.00 | 0.01 | 0.01 | 89 | 1015.9 |
| 20260830230038 | 74 | 125 | 0.0 | 0.0 | 0.00 | 0.01 | 0.01 | 87 | 1015.6 |
| 20260830224545 | 74 | 125 | 0.0 | 0.0 | 0.00 | 0.01 | 0.01 | 87 | 1015.4 |
| 20260830223033 | 74 | 125 | 0.0 | 0.0 | 0.00 | 0.01 | 0.01 | 87 | 1015.4 |
| 20260830221532 | 74 | 208 | 0.0 | 0.0 | 0.00 | 0.01 | 0.01 | 88 | 1014.9 |
| 20260830220033 | 73 | 123 | 0.0 | 5.0 | 0.00 | 0.01 | 0.01 | 87 | 1014.9 |
| 20260830214531 | 74 | 111 | 2.0 | 6.0 | 0.00 | 0.01 | 0.01 | 88 | 1014.8 |
| 20260830213028 | 74 | 182 | 0.0 | 0.0 | 0.00 | 0.01 | 0.01 | 88 | 1015.4 |
| 20260830211528 | 73 | 304 | 0.0 | 0.0 | 0.00 | 0.01 | 0.01 | 89 | 1015.4 |
| 20260830210026 | 73 | 211 | 0.0 | 0.0 | 0.00 | 0.01 | 0.01 | 89 | 1015.6 |
| 20260830204526 | 73 | 252 | 0.0 | 4.0 | 0.00 | 0.01 | 0.01 | 89 | 1015.7 |
| 20260830203023 | 73 | 231 | 0.0 | 2.0 | 0.00 | 0.01 | 0.01 | 89 | 1015.6 |
| 20260830201523 | 72 | 217 | 0.0 | 4.0 | 0.00 | 0.01 | 0.01 | 89 | 1015.6 |
| 20260830200020 | 72 | 128 | 0.0 | 0.0 | 0.00 | 0.01 | 0.01 | 87 | 1016.0 |
| 20260830194518 | 73 | 127 | 0.0 | 0.0 | 0.00 | 0.01 | 0.01 | 87 | 1016.3 |
| 20260830193017 | 73 | 121 | 1.0 | 3.0 | 0.00 | 0.01 | 0.01 | 85 | 1016.5 |
| 20260830191513 | 73 | 259 | 0.0 | 0.0 | 0.00 | 0.01 | 0.01 | 84 | 1016.8 |
| 20260830190017 | 74 | 267 | 0.0 | 2.0 | 0.00 | 0.01 | 0.01 | 81 | 1017.2 |
| 20260830184514 | 74 | 267 | 0.0 | 4.0 | 0.00 | 0.01 | 0.01 | 82 | 1017.5 |